OPS 4682 DEB, 38397

Orbit data source: Space-Track

OPS 4682 DEB, 38397 is space debris in LEO originally from a launch on Sat, 03 Apr 1965 UTC launched from the Air Force Western Test Range (AFWTR). Debris objects in space refer to the collection of defunct objects orbiting the Earth. Examples of debris include non-operational satellites, rocket bodies, and fragments generated from explosions, collisions, or faulty payload assembly.

Loading next visibility...
Identifier
38397, 1965-027DA
Orbit
LEO
Country
Flag of USUS
Related business
Manufacturer
Unknown
Mission
Spacecraft
Bus & Motor
Unknown
Mass
Unknown
Launch date (UTC)
1965-04-03 (61 years ago)
Launch vehicle
Unknown
Launch site
Air Force Western Test Range (AFWTR)
Object type
Payload
Rocket body
Debris
Shape & HBR
Unknown shape, 0.1 m
Radar Cross Section
Medium (>0.1 m² and <1 m²)

Expand to show TLE details & history
Last TLE update: 7 hours ago

TLE from 7 hours ago
0 OPS 4682 DEB
1 38397U 65027DA  26175.26611471  .00000071  00000-0  21174-3 0  9995
2 38397  90.2514  17.7498 0038439 235.5735 124.1752 13.00011833663777
Epoch: 2026-06-24T06:23Z
TLE epoch observation values (Epoch: 2026-06-24T06:23:12.310Z)
Latitude
-0°
Longitude
9.52271°
Altitude
1,281.501 km
Speed
7.207 km/s
True Right ascension
01h 10m 59s
True Declination
0° 00' 00"
Sunlit
Object was in daylight at epoch
Visualization orbit readout
Latitude
Unknown
Longitude
Unknown
Altitude
Unknown
Speed
Unknown
Apparent Right ascension
Unknown
Apparent Declination
Unknown
Sunlit
N/A
Visualization observer readout
Local Sidereal Time
00:18:00
Azimuth
Unknown
Elevation
Unknown
Doppler factor
Unknown
Orbital elements
Apogee altitude
1,288.524 km
Perigee altitude
1,229.81 km
Semi-major axis
7,637.304 km
Eccentricity
0.00384
Inclination
90.2514°
RAAN
17.7498°
Arg. of periapsis
235.5735°
True anomaly
124.53863°
Mean anomaly
124.1752°
Eccentric anomaly
124.35702°
Mean motion
3.25187 °/min
Orbital period
110.71 mins
BSTAR
0.00021174
Loading maneuver chart data...
Computing Atmospheric mass density...
Loading historical data...
Loading historical data...
Loading historical data...
Loading historical data...
Loading historical data...
Loading historical data...
Loading historical data...

Documentation

Showing up to 5 results
|